User: anonymous   Login
Location: Oshawa
(43.9000°N, 78.8670°W)
Time: 03:58:21
(UTC-04:00)
Language:

Cosmos 2333 Rocket - Orbit

View from above orbital plane
View from above orbital plane
View from above satellite
View from above satellite

Ground track
Ground track

The orbit data is extracted from the following two-line orbital elements,

1 24298U 96051B   14296.11671484 -.00000079  00000-0 -16318-4 0  5830
2 24298 070.8600 302.5501 0016256 191.1750 233.7624 14.12458312935137
Epoch (UTC): 23 October 2014 02:48:04
Eccentricity: 0.0016256
inclination: 70.8600°
perigee height: 839 km
apogee height: 863 km
right ascension of ascending node: 302.5501°
argument of perigee: 191.1750°
revolutions per day: 14.12458312
mean anomaly at epoch: 233.7624°
orbit number at epoch: 93513

The dashed part of the orbit path shows where the satellite is in the earth's shadow,  

DLR